This is the latest recevied weather packets stored in our database for station/object W8KVG. If no packets are shown the sender has not sent any weather packets the latest 10 day(s).
| Time | Temp. | Humidity | Pressure | Rain* | Wind** | Luminosity | Snow |
|---|---|---|---|---|---|---|---|
| 1777765981 | 5° C | 76% | 1015.1 hPa | 0 mm | - | 7 W/m² | - |
| 1777765677 | 5° C | 78% | 1015 hPa | 0 mm | - | 8 W/m² | - |
| 1777765374 | 5° C | 78% | 1014.9 hPa | 0 mm | - | 10 W/m² | - |
| 1777765070 | 5° C | 77% | 1015 hPa | 0 mm | - | 11 W/m² | - |
| 1777764767 | 5° C | 76% | 1015 hPa | 0 mm | - | 11 W/m² | - |
| 1777764463 | 5.56° C | 75% | 1015 hPa | 0 mm | - | 13 W/m² | - |
| 1777764160 | 5.56° C | 77% | 1014.9 hPa | 0 mm | - | 13 W/m² | - |
| 1777763857 | 5.56° C | 76% | 1014.9 hPa | 0 mm | - | 11 W/m² | - |
| 1777763555 | 5.56° C | 75% | 1014.9 hPa | 0 mm | - | 14 W/m² | - |
| 1777763253 | 5.56° C | 76% | 1015 hPa | 0 mm | - | 24 W/m² | - |
| 1777762951 | 5.56° C | 77% | 1015.1 hPa | 0 mm | - | 36 W/m² | - |
| 1777762647 | 5.56° C | 75% | 1015 hPa | 0 mm | - | 44 W/m² | - |
| 1777762344 | 5.56° C | 75% | 1014.9 hPa | 0 mm | - | 47 W/m² | - |
| 1777762040 | 5.56° C | 76% | 1015.2 hPa | 0 mm | - | 46 W/m² | - |
| 1777761737 | 5.56° C | 76% | 1015.1 hPa | 0 mm | - | 40 W/m² | - |
| 1777761434 | 5.56° C | 75% | 1015.3 hPa | 0 mm | - | 36 W/m² | - |
| 1777761132 | 5.56° C | 75% | 1014.9 hPa | 0 mm | - | 42 W/m² | - |
| 1777760830 | 5.56° C | 74% | 1015.1 hPa | 0 mm | - | 51 W/m² | - |
| 1777760526 | 5.56° C | 75% | 1015 hPa | 0 mm | - | 58 W/m² | - |
| 1777760222 | 5.56° C | 76% | 1015 hPa | 0 mm | - | 62 W/m² | - |
| 1777759919 | 5.56° C | 73% | 1015 hPa | 0 mm | - | 66 W/m² | - |
| 1777759615 | 5.56° C | 72% | 1015 hPa | 0 mm | - | 71 W/m² | - |
| 1777759311 | 5.56° C | 72% | 1015.2 hPa | 0 mm | - | 74 W/m² | - |
| 1777759009 | 5.56° C | 75% | 1015.1 hPa | 0 mm | - | 82 W/m² | - |
| 1777758705 | 5.56° C | 75% | 1015 hPa | 0 mm | - | 63 W/m² | - |
* Rain latest hour (hover to see other rain measurements)
** Current wind speed in m/s (hover to see current wind gust speed)